Overview Statistics Trail Chart Weather Telemetry Raw packets
 

This is the latest recevied weather packets stored in our database for station/object WASF. If no packets are shown the sender has not sent any weather packets the latest 10 day(s).

<< 4 5 6 7 8 9 10 >>
Time Temp. Humidity Pressure Rain* Wind** Luminosity Snow
1787872577 22.78° C 94% 1016 hPa 0 mm - - -
1787870640 22.78° C 94% 1016 hPa 0 mm - - -
1787868697 22.78° C 94% 1016 hPa 0 mm - - -
1787866769 22.78° C 94% 1016 hPa 0 mm - - -
1787864837 22.78° C 94% 1016 hPa 0 mm - - -
1787862912 23.89° C 89% 1016 hPa 0 mm - - -
1787860983 23.89° C 89% 1016 hPa 0 mm - - -
1787859050 23.89° C 83% 1016 hPa 0 mm - - -
1787857113 23.89° C 83% 1016 hPa 0 mm - - -
1787855178 22.78° C 89% 1016 hPa 0 mm - - -
1787851172 22.78° C 89% 1017 hPa 0 mm - - -
1787849070 22.22° C 99% 1017 hPa 0 mm - - -
1787847086 22.78° C 94% 1017 hPa 0 mm - - -
1787845003 22.78° C 99% 1017 hPa 0 mm - - -
1787840794 23.89° C 94% 1017 hPa 0 mm - - -
1787832012 25° C 89% 1016 hPa 0 mm - - -
1787829744 25° C 83% 1015 hPa 0 mm - - -
1787825475 25° C 83% 1015 hPa 0 mm - - -
1787819192 26.11° C 79% 1014 hPa 0 mm - - -
1787817152 26.11° C 79% 1015 hPa 0 mm - - -
1787815103 26.11° C 79% 1015 hPa 0 mm - - -
1787813060 26.11° C 79% 1015 hPa 0 mm - - -
1787808853 27.78° C 70% 1016 hPa 0 mm - - -
1787804700 27.22° C 74% 1017 hPa 0 mm - - -
1787802699 27.22° C 74% 1017 hPa 0 mm - - -

* Rain latest hour (hover to see other rain measurements)
** Current wind speed in m/s (hover to see current wind gust speed)